Location: Arcizac
(43.0933°N, 0.0112°E)
Time: 12:47:58
(UTC+00:00)

Cosmos 1140 Rocket - Pass Details

Date: 14 December 2019
Orbit: 744 x 768 km, 74.1° (Epoch: 27 January)

Event Time Altitude Azimuth Distance (km) Brightness Sun altitude
Rises 18:22:21 0° 213° (SSW) 3,171 7.4 -20.5°
Reaches altitude 10° 18:24:45 10° 218° (SW) 2,253 6.6 -20.9°
Maximum altitude 18:29:43 51° 294° (WNW) 934 4.2 -21.8°
Enters shadow 18:33:43 16° 7° (N) 1,901 5.4 -22.5°
